Regional Weather Roundup
Issued by NWS

Home | Current Version | Previous Version | Text Only | Print | Product List | Glossary Off
Versions: 1 2 3 4 5 6 7 8 9 10 11 12 13 14 15 16 17 18 19 20 21 22 23 24 25 26 27 28 29 30 31 32 33 34 35 36 37 38 39 40 41 42 43 44 45 46 47 48 49 50

000
ASUS43 KLOT 230606
RWRIL

ILLINOIS REGIONAL WEATHER ROUNDUP
NATIONAL WEATHER SERVICE CHICAGO/ROMEOVILLE IL
100 AM CDT WED APR 23 2014

NOTE: "FAIR" INDICATES FEW OR NO CLOUDS BELOW 12,000 FEET WITH NO
SIGNIFICANT WEATHER AND/OR OBSTRUCTIONS TO VISIBILITY.

* THESE STATIONS ARE NOT UNDER NWS QUALITY CONTROL. THEY ALSO MAY NOT
  REPORT WEATHER SUCH AS PRECIPITATION OR FOG.

ILZ001-002-007-009-015-016-024-230700-
NORTHWEST ILLINOIS

CITY           SKY/WX    TMP DP  RH WIND       PRES   REMARKS
MOLINE         FAIR      40  30  67 NE6       30.07R
6HR MIN TEMP:  39; 6HR MAX TEMP:  61;

STERLING*      FAIR      36  30  80 E5        30.10R WCI  32
SAVANNA*       FAIR      41  32  70 CALM      30.11R
$$

ILZ003-004-008-010-011-017-018-230700-
NORTH CENTRAL ILLINOIS

CITY           SKY/WX    TMP DP  RH WIND       PRES   REMARKS
ROCKFORD       FAIR      39  27  62 E3        30.12S
6HR MIN TEMP:  39; 6HR MAX TEMP:  56;

FREEPORT*      FAIR      33  28  83 E3        30.12R
ROCHELLE*      FAIR      35  28  74 E3        30.10S
DE KALB*       FAIR      35  26  71 CALM      30.11R
PERU*          FAIR      40  32  74 CALM      30.10R
$$

ILZ005-006-012>014-019>023-230700-
NORTHEAST ILLINOIS

CITY           SKY/WX    TMP DP  RH WIND       PRES   REMARKS
CHICAGO-OHARE  FAIR      39  26  59 NE6       30.10R WCI  35
6HR MIN TEMP:  36; 6HR MAX TEMP:  47;

CHICAGO-MIDWAY FAIR      40  29  64 NE14      30.10R
6HR MIN TEMP:  40; 6HR MAX TEMP:  46;

AURORA         FAIR      34  26  72 N5        30.10R WCI  30
6HR MIN TEMP:  32; 6HR MAX TEMP:  55;

LANSING*       FAIR      39  28  64 NE10      30.10R WCI  33
JOLIET*        FAIR      39  28  65 CALM      30.11R
WAUKEGAN       FAIR      34  28  79 NE8       30.11R WCI  27
6HR MIN TEMP:  31; 6HR MAX TEMP:  42;

DUPAGE AIRPORT FAIR      34  26  72 N3        30.10R
6HR MIN TEMP:  34; 6HR MAX TEMP:  49;

KANKAKEE*      FAIR      37  31  79 NE5       30.09S WCI  33
WHEELING       FAIR      38  29  70 NE8       30.12R WCI  32
6HR MIN TEMP:  37; 6HR MAX TEMP:  45;

MORRIS*        FAIR      37  28  72 CALM      30.10R
NORTHERLY ISL    N/A     39  30  70 NE15        N/A  WCI  31
$$

LMZ740>746-230700-
SOUTHERN LAKE MICHIGAN

STATION/POSITION SKY/WX   TEMP    WIND        PRES    VSBY  WAVE
                          AIR SEA DIR/SP/G                  HT/PER
                          (F)     (DEG/KT/KT) (MB)    (MI)  (FT/S)
WAUKEGAN HARBOR            37      40/ 12/ 14 1020.7S
HARRISON CRIB              38     360/ 12/ 15   N/A
BURNHAM HARBOR             39      10/ 10/ 17   N/A
CALUMET HARBOR             39     350/ 12/ 15 1020.1R
MICHIGAN CITY              38     330/ 16/ 18   N/A
$$

ILZ025>027-034>036-040-047-049-050-058-095>099-230700-
WEST-CENTRAL ILLINOIS

CITY           SKY/WX    TMP DP  RH WIND       PRES   REMARKS
QUINCY         FAIR      45  31  58 NE8       30.04S
GALESBURG*     FAIR      37  30  74 CALM      30.07R
MACOMB*        FAIR      43  31  62 N7        30.08S
JACKSONVILLE*  FAIR      48  32  52 N7        30.05S
PITTSFIELD*    FAIR      52  30  43 CALM      30.05S
$$

ILZ028>032-037-038-041>044-048-051>054-059>061-230700-
CENTRAL ILLINOIS

CITY           SKY/WX    TMP DP  RH WIND       PRES   REMARKS
PONTIAC        FAIR      37  30  75 CALM      30.09S
BLOOMINGTON    FAIR      37  29  73 NE10      30.09R WCI  30
DECATUR        FAIR      43  33  68 NE12      30.06R
PEORIA         FAIR      44  32  62 E16       30.09R
6HR MIN TEMP:  44; 6HR MAX TEMP:  63;

LACON*         FAIR      38  32  78 E3        30.10R
LINCOLN*       FAIR      43  33  68 NE7       30.07R
SPRINGFIELD    FAIR      47  31  53 NE9       30.06R
6HR MIN TEMP:  46; 6HR MAX TEMP:  64;

TAYLORVILLE    FAIR      45  32  61 NE10      30.05R
$$

ILZ033-039-045-046-055>057-062-063-230700-
EAST-CENTRAL ILLINOIS

CITY           SKY/WX    TMP DP  RH WIND       PRES   REMARKS
CHAMPAIGN      FAIR      42  31  64 NE16G24   30.06R
RANTOUL*       FAIR      43  29  59 NE12      30.08R
MATTOON        FAIR      45  35  68 NE13      30.04R
PARIS*         FAIR      45  34  65 NE13G18   30.06R
$$

ILZ079-100>102-230700-
SOUTHWEST ILLINOIS

CITY           SKY/WX    TMP DP  RH WIND       PRES   REMARKS
ALTON          FAIR      45  37  73 CALM      30.03S
BELLEVILLE     FAIR      50  36  57 N3        30.01S
CAHOKIA*       FAIR      45  41  86 CALM      30.02S
SPARTA*        FAIR      52  36  54 CALM      30.03R
$$

ILZ064>066-069>071-074>076-080>082-084>086-088>090-092>094-230700-
SOUTH-CENTRAL ILLINOIS

CITY           SKY/WX    TMP DP  RH WIND       PRES   REMARKS
CARBONDALE     FAIR      46  41  82 NW3       30.01R
6HR MIN TEMP:  46; 6HR MAX TEMP:  64;

CAIRO*         FAIR      49  42  77 CALM      30.00R
MARION         FAIR      48  39  71 CALM      30.01R
MT. VERNON     FAIR      39  30  70 CALM      30.02R
CENTRALIA*       N/A     47  36  66 CALM      30.02R
SALEM*         FAIR      48  38  70 N5        30.02R
METROPOLIS*    FAIR      49  39  69 CALM      29.98S
$$

ILZ067-068-072-073-078-083-087-091-230700-
SOUTHEAST ILLINOIS

CITY           SKY/WX    TMP DP  RH WIND       PRES   REMARKS
FAIRFIELD*     FAIR      52  37  58 N3        30.01R
HARRISBURG*    FAIR      52  35  53 N5        30.01R
ROBINSON*      FAIR      47  40  76 NE9       30.03R
CARMI*         FAIR      52  41  67 N8        30.00R
$$

ABBREVIATIONS USED IN REMARKS
   TC - TEMPERATURE IN CELSIUS
  WCI - WIND CHILL INDEX
   HX - HEAT INDEX
  VSB - VISIBILITY
$$




USA.gov is the U.S. government's official web portal to all federal, state and local government web resources and services.